sat.trackr.live / text

‹ back to catalog

STARLINK-2122

NORAD 47400 · 2021-005BD

PAYLOAD ACTIVE UNKNOWN

§ Identity

Operator
Country
US
Launch date
2021-01-20
Launch site
AFETR
Launch vehicle
Mass (kg)
RCS (m²)

Purposes: comms

External: N2YO · Heavens-Above · Gunter

§ Orbital elements

Epoch: 2026-05-25T01:31:21.139104Z

Period
94.01 min
Inclination
53.1610°
Eccentricity
0.0001135
Mean motion
15.31699694 rev/d
Perigee alt
470.0 km
Apogee alt
471.5 km
Semi-major
6,848.9 km
B*
3.2311e-5
RAAN
18.3127°
Arg perigee
84.4387°
Mean anomaly
275.6744°
Rev number
29,542

§ Raw data

STARLINK-21221 47400U 21005BD  26145.06343911  .00000638  00000+0  32311-4 0  99982 47400  53.1610  18.3127 0001135  84.4387 275.6744 15.31699694295429

JSON: /api/v1/satellites/47400 · /tle

For live sub-satellite position, see the globe view (requires WebGL).

§ Visibility from observer

Set your observer location to see the next 7 days of passes ≥ 10°. The values pass through the URL so the page stays shareable.

No JS? Fill the form by hand. The geolocation button needs JavaScript.